Location: Asheville, NC
(35.6000°N, 82.5500°W)
Time: 18:38:39
(UTC-04:00)

BEESAT 3 - Pass Details

Date: 14 March 2018
Orbit: 499 x 517 km, 64.9° (Epoch: 19 June)

Event Time Altitude Azimuth Distance (km) Brightness Sun altitude
Exits shadow 06:12:04 16° 187° (S) 1,394 ? -19.1°
Drops below altitude 10° 06:12:58 10° 180° (S) 1,715 ? -18.9°
Sets 06:15:13 0° 171° (S) 2,592 ? -18.5°
